| time (UTC) | temp F | wind direction | speed MPH | gust MPH | rain 1hr in | rain 24hr in | rain mn in | humidity % | barometer mb |
| 20260901173045 | 86 | 333 | 3.0 | 10.0 | 0.00 | 0.06 | 0.05 | 76 | 1025.6 |
| 20260901170319 | 85 | 316 | 3.0 | 10.0 | 0.00 | 0.06 | 0.05 | 79 | 1026.0 |
| 20260901170017 | 84 | 261 | 2.0 | 12.0 | 0.00 | 0.06 | 0.05 | 78 | 1026.0 |
| 20260901163054 | 83 | 320 | 5.0 | 15.0 | 0.00 | 0.06 | 0.05 | 78 | 1026.1 |
| 20260901160335 | 83 | 294 | 4.0 | 14.0 | 0.00 | 0.06 | 0.05 | 77 | 1026.1 |
| 20260901160113 | 83 | 272 | 6.0 | 14.0 | 0.00 | 0.06 | 0.05 | 77 | 1026.1 |
| 20260901160010 | 83 | 272 | 6.0 | 14.0 | 0.00 | 0.06 | 0.05 | 77 | 1026.1 |
| 20260901153009 | 83 | 284 | 7.0 | 14.0 | 0.00 | 0.06 | 0.05 | 77 | 1025.8 |
| 20260901150328 | 83 | 277 | 6.0 | 14.0 | 0.00 | 0.06 | 0.05 | 77 | 1026.0 |
| 20260901150041 | 83 | 281 | 7.0 | 14.0 | 0.00 | 0.06 | 0.05 | 77 | 1026.0 |
| 20260901143046 | 83 | 331 | 9.0 | 13.0 | 0.00 | 0.06 | 0.05 | 78 | 1025.7 |
| 20260901140314 | 83 | 323 | 5.0 | 14.0 | 0.00 | 0.06 | 0.05 | 81 | 1025.6 |
| 20260901140010 | 83 | 319 | 3.0 | 14.0 | 0.00 | 0.06 | 0.05 | 81 | 1025.5 |
| 20260901133137 | 82 | 295 | 9.0 | 15.0 | 0.00 | 0.06 | 0.05 | 80 | 1025.5 |
| 20260901130345 | 81 | 310 | 6.0 | 12.0 | 0.00 | 0.06 | 0.05 | 82 | 1025.6 |
| 20260901130107 | 81 | 296 | 6.0 | 12.0 | 0.00 | 0.06 | 0.05 | 83 | 1025.6 |
| 20260901123018 | 79 | 291 | 2.0 | 5.0 | 0.00 | 0.06 | 0.05 | 86 | 1025.8 |
| 20260901120315 | 77 | 215 | 1.0 | 4.0 | 0.00 | 0.06 | 0.05 | 89 | 1025.7 |
| 20260901120027 | 77 | 339 | 1.0 | 4.0 | 0.00 | 0.06 | 0.05 | 89 | 1025.7 |
| 20260901113046 | 76 | 236 | 4.0 | 10.0 | 0.00 | 0.06 | 0.05 | 90 | 1025.5 |
| 20260901110320 | 76 | 228 | 2.0 | 3.0 | 0.00 | 0.06 | 0.05 | 90 | 1025.3 |
| 20260901110100 | 76 | 236 | 1.0 | 3.0 | 0.00 | 0.06 | 0.05 | 90 | 1025.3 |
| 20260901103022 | 76 | 255 | 2.0 | 6.0 | 0.00 | 0.06 | 0.05 | 90 | 1025.1 |
| 20260901100319 | 75 | 165 | 2.0 | 7.0 | 0.00 | 0.06 | 0.05 | 91 | 1025.0 |
| 20260901100014 | 75 | 243 | 2.0 | 9.0 | 0.00 | 0.06 | 0.05 | 91 | 1025.0 |
| 20260901093035 | 75 | 340 | 2.0 | 8.0 | 0.00 | 0.06 | 0.05 | 92 | 1024.8 |
| 20260901090352 | 74 | 250 | 1.0 | 4.0 | 0.00 | 0.06 | 0.05 | 94 | 1025.0 |
| 20260901090032 | 74 | 261 | 2.0 | 6.0 | 0.00 | 0.06 | 0.05 | 94 | 1024.9 |
| 20260901083112 | 73 | 230 | 2.0 | 5.0 | 0.02 | 0.06 | 0.05 | 96 | 1024.9 |
| 20260901080352 | 74 | 181 | 1.0 | 3.0 | 0.04 | 0.06 | 0.05 | 95 | 1024.9 |
| 20260901080033 | 74 | 181 | 1.0 | 8.0 | 0.04 | 0.06 | 0.05 | 95 | 1024.8 |
| 20260901073032 | 75 | 234 | 2.0 | 7.0 | 0.03 | 0.04 | 0.03 | 91 | 1025.4 |
| 20260901070412 | 76 | 248 | 2.0 | 9.0 | 0.01 | 0.02 | 0.01 | 88 | 1025.3 |
| 20260901070109 | 76 | 221 | 3.0 | 9.0 | 0.01 | 0.02 | 0.01 | 87 | 1025.3 |
| 20260901070026 | 76 | 221 | 3.0 | 9.0 | 0.01 | 0.02 | 0.01 | 87 | 1025.3 |
| 20260901063026 | 76 | 225 | 3.0 | 7.0 | 0.00 | 0.01 | 0.00 | 85 | 1025.3 |
| 20260901060343 | 75 | 190 | 2.0 | 6.0 | 0.00 | 0.01 | 0.00 | 87 | 1025.3 |
| 20260901060019 | 75 | 213 | 2.0 | 7.0 | 0.00 | 0.01 | 0.00 | 87 | 1025.3 |
| 20260901053034 | 72 | 231 | 2.0 | 7.0 | 0.00 | 0.01 | 0.00 | 93 | 1025.8 |
| 20260901050309 | 70 | 217 | 0.0 | 3.0 | 0.00 | 0.01 | 0.00 | 96 | 1026.0 |
| 20260901050033 | 70 | 217 | 1.0 | 3.0 | 0.00 | 0.01 | 0.00 | 96 | 1026.0 |
| 20260901043027 | 70 | 329 | 2.0 | 2.0 | 0.00 | 0.05 | 0.00 | 98 | 1025.9 |
| 20260901040342 | 71 | 331 | 0.0 | 0.0 | 0.00 | 0.05 | 0.00 | 98 | 1026.3 |
| 20260901040034 | 71 | 331 | 0.0 | 0.0 | 0.00 | 0.05 | 0.00 | 98 | 1026.3 |
| 20260901033109 | 71 | 331 | 0.0 | 0.0 | 0.00 | 0.13 | 0.05 | 98 | 1026.0 |
| 20260901030352 | 71 | 331 | 1.0 | 2.0 | 0.00 | 0.13 | 0.05 | 98 | 1026.4 |
| 20260901030048 | 71 | 331 | 1.0 | 2.0 | 0.00 | 0.13 | 0.05 | 98 | 1026.4 |
| 20260901023029 | 72 | 5 | 0.0 | 2.0 | 0.00 | 0.13 | 0.05 | 97 | 1026.7 |
| 20260901020326 | 72 | 5 | 0.0 | 2.0 | 0.00 | 0.13 | 0.05 | 96 | 1026.8 |
| 20260901020018 | 72 | 5 | 0.0 | 2.0 | 0.00 | 0.13 | 0.05 | 96 | 1026.7 |
| 20260901013127 | 73 | 24 | 0.0 | 2.0 | 0.01 | 0.13 | 0.05 | 94 | 1026.5 |
| 20260901013045 | 73 | 24 | 0.0 | 2.0 | 0.01 | 0.13 | 0.05 | 94 | 1026.5 |
| 20260901010353 | 74 | 118 | 3.0 | 7.0 | 0.01 | 0.13 | 0.05 | 91 | 1025.2 |
| 20260901010024 | 74 | 120 | 2.0 | 4.0 | 0.01 | 0.13 | 0.05 | 91 | 1025.4 |
| 20260901003053 | 73 | 306 | 1.0 | 2.0 | 0.00 | 0.13 | 0.04 | 92 | 1026.2 |
| 20260901000328 | 75 | 306 | 0.0 | 0.0 | 0.00 | 0.13 | 0.04 | 90 | 1026.7 |
| 20260901000044 | 75 | 306 | 0.0 | 0.0 | 0.00 | 0.13 | 0.04 | 89 | 1026.7 |
| 20260831233050 | 77 | 306 | 0.0 | 1.0 | 0.00 | 0.15 | 0.04 | 87 | 1026.7 |
| 20260831230359 | 78 | 306 | 1.0 | 2.0 | 0.00 | 0.15 | 0.04 | 83 | 1026.5 |
| 20260831230039 | 78 | 306 | 1.0 | 2.0 | 0.00 | 0.15 | 0.04 | 82 | 1026.4 |
| 20260831223037 | 79 | 84 | 2.0 | 4.0 | 0.00 | 0.15 | 0.04 | 80 | 1025.7 |
| 20260831220312 | 79 | 199 | 5.0 | 7.0 | 0.00 | 0.15 | 0.04 | 79 | 1026.0 |
| 20260831220012 | 79 | 272 | 3.0 | 4.0 | 0.00 | 0.15 | 0.04 | 79 | 1026.2 |
| 20260831213032 | 81 | 225 | 2.0 | 5.0 | 0.00 | 0.15 | 0.04 | 77 | 1027.4 |
| 20260831210328 | 82 | 343 | 2.0 | 6.0 | 0.00 | 0.15 | 0.04 | 74 | 1027.5 |
| 20260831210046 | 82 | 324 | 2.0 | 4.0 | 0.00 | 0.15 | 0.04 | 73 | 1027.5 |
| 20260831203024 | 83 | 306 | 2.0 | 5.0 | 0.00 | 0.15 | 0.04 | 71 | 1027.4 |
| 20260831200328 | 83 | 250 | 3.0 | 7.0 | 0.00 | 0.15 | 0.04 | 76 | 1027.5 |
| 20260831200025 | 83 | 256 | 2.0 | 7.0 | 0.00 | 0.15 | 0.04 | 78 | 1027.5 |
| 20260831193023 | 81 | 272 | 2.0 | 3.0 | 0.00 | 0.15 | 0.04 | 78 | 1027.6 |
| 20260831190335 | 81 | 281 | 2.0 | 9.0 | 0.00 | 0.15 | 0.04 | 75 | 1027.8 |
| 20260831190009 | 81 | 303 | 3.0 | 8.0 | 0.00 | 0.15 | 0.04 | 75 | 1027.8 |
| 20260831183034 | 83 | 195 | 4.0 | 11.0 | 0.00 | 0.16 | 0.04 | 71 | 1028.0 |
| 20260831180329 | 83 | 294 | 4.0 | 9.0 | 0.00 | 0.16 | 0.04 | 70 | 1028.2 |
| 20260831180028 | 83 | 294 | 5.0 | 11.0 | 0.00 | 0.16 | 0.04 | 70 | 1028.3 |